Martinsburg, WV

1:21 AM EDT on October 22, 2017 (GMT -0400)
Eastern W Va Regional-Shepherd

Weather History for KMRB - March, 2014

Change the Weather History Date:

Wednesday, March 19, 2014

  Actual Average Record
Temperature  
Mean Temperature 39 °F 43 °F  
Max Temperature 44 °F 54 °F 81 °F (1945)
Min Temperature 34 °F 32 °F 7 °F (1967)
Degree Days  
Heating Degree Days 26 22  
Month to date heating degree days 550 477  
Since 1 July heating degree days 4643 4433  
Cooling Degree Days 0 0  
Month to date cooling degree days 0 0  
Year to date cooling degree days 0 0  
Moisture  
Dew Point 33 °F    
Average Humidity 75    
Maximum Humidity 96    
Minimum Humidity 54    
Precipitation  
Precipitation 0.04 in 0.13 in 1.96 in (1975)
Month to date precipitation 0.60 2.05  
Year to date precipitation 4.35 6.83  
Sea Level Pressure  
Sea Level Pressure 30.07 in    
Wind  
Wind Speed 5 mph (SE)    
Max Wind Speed 17 mph    
Max Gust Speed 23 mph    
Visibility 7 miles    
Events Rain    
T = Trace of Precipitation, MM = Missing Value Source: NWS Daily Summary

Daily Weather History Graph

Daily Weather History Graph

Search for Another Location

Airport or City:

Trip Planner

Search our weather history database for the weather conditions in past years. The results will help you decide how hot, cold, wet, or windy it might be!

Date:

Astronomy

Mar. 19, 2014 Rise Set
Actual Time 7:16 AM EDT 7:22 PM EDT
Civil Twilight 6:50 AM EDT 7:49 PM EDT
Nautical Twilight 6:18 AM EDT 8:21 PM EDT
Astronomical Twilight 5:47 AM EDT 8:52 PM EDT
Moon 10:38 PM EDT (3/19) 8:42 AM EDT (3/19)
Length of Visible Light 12h 59m
Length of Day
12h 05m
Waning Gibbous, 91% of the Moon is Illuminated
Mar 19
Waning Gibbous
Mar 23
Last Quarter
Mar 30
New
Apr 7
First Quarter
Apr 15
Full

Hourly Weather History & Observations

Time (EDT) Temp. Windchill Dew Point Humidity Pressure Visibility Wind Dir Wind Speed Gust Speed Precip Events Conditions
12:53 AM 39.0 °F - 24.1 °F 55% 30.21 in 10.0 mi Calm Calm - N/A   Overcast
1:53 AM 37.9 °F - 27.0 °F 65% 30.21 in 10.0 mi Calm Calm - N/A   Overcast
2:53 AM 37.9 °F - 25.0 °F 60% 30.21 in 10.0 mi Calm Calm - N/A   Overcast
3:53 AM 37.0 °F 33.3 °F 26.1 °F 65% 30.21 in 10.0 mi SE 4.6 mph - N/A   Overcast
4:53 AM 37.0 °F 34.5 °F 26.1 °F 65% 30.21 in 10.0 mi Variable 3.5 mph - N/A   Overcast
5:53 AM 36.0 °F 31.1 °F 25.0 °F 64% 30.20 in 10.0 mi SE 5.8 mph - N/A   Overcast
6:53 AM 36.0 °F 31.1 °F 26.1 °F 67% 30.20 in 10.0 mi ESE 5.8 mph - N/A   Overcast
7:53 AM 35.1 °F 31.0 °F 27.0 °F 72% 30.20 in 10.0 mi SE 4.6 mph - N/A   Overcast
8:53 AM 34.0 °F 28.8 °F 30.0 °F 85% 30.19 in 2.5 mi SE 5.8 mph - 0.00 in   Overcast
9:10 AM 34.0 °F 28.8 °F 30.9 °F 89% 30.18 in 1.5 mi SE 5.8 mph - 0.00 in Rain Light Rain
9:19 AM 34.0 °F 29.8 °F 30.9 °F 89% 30.17 in 2.0 mi SE 4.6 mph - 0.00 in Rain Light Rain
9:42 AM 34.0 °F 31.0 °F 30.9 °F 89% 30.17 in 1.8 mi SSE 3.5 mph - 0.01 in   Overcast
9:53 AM 34.0 °F 31.0 °F 32.0 °F 92% 30.19 in 1.2 mi SE 3.5 mph - 0.01 in   Overcast
10:16 AM 34.0 °F 31.0 °F 32.0 °F 92% 30.17 in 2.0 mi SSE 3.5 mph - 0.01 in   Overcast
10:31 AM 35.1 °F 32.2 °F 30.9 °F 85% 30.17 in 2.0 mi SSE 3.5 mph - 0.01 in   Overcast
10:39 AM 35.1 °F 32.2 °F 32.0 °F 89% 30.17 in 1.8 mi SSE 3.5 mph - 0.01 in   Overcast
10:53 AM 35.1 °F 32.2 °F 32.0 °F 89% 30.18 in 2.0 mi South 3.5 mph - 0.01 in   Overcast
11:11 AM 35.1 °F 31.0 °F 33.1 °F 92% 30.15 in 4.0 mi South 4.6 mph - 0.01 in   Overcast
11:53 AM 36.0 °F 33.3 °F 33.1 °F 89% 30.15 in 6.0 mi Variable 3.5 mph - 0.01 in   Overcast
12:53 PM 37.9 °F 33.5 °F 34.0 °F 86% 30.11 in 10.0 mi SE 5.8 mph - N/A   Overcast
1:53 PM 39.0 °F 34.0 °F 35.1 °F 86% 30.07 in 10.0 mi East 6.9 mph - N/A   Overcast
2:53 PM 41.0 °F 35.8 °F 36.0 °F 82% 30.02 in 10.0 mi SE 8.1 mph - N/A   Overcast
3:41 PM 42.1 °F 36.6 °F 37.0 °F 82% 29.96 in 10.0 mi SE 9.2 mph - N/A   Overcast
3:53 PM 42.1 °F 35.7 °F 37.0 °F 82% 29.97 in 10.0 mi SE 11.5 mph - N/A   Overcast
4:53 PM 42.1 °F 38.4 °F 37.0 °F 82% 29.93 in 10.0 mi ESE 5.8 mph - N/A   Overcast
5:53 PM 44.1 °F 42.5 °F 37.9 °F 79% 29.91 in 10.0 mi East 3.5 mph - N/A   Overcast
6:43 PM 42.1 °F 37.7 °F 37.0 °F 82% 29.87 in 10.0 mi East 6.9 mph - N/A   Overcast
6:53 PM 42.1 °F 40.2 °F 37.0 °F 82% 29.89 in 10.0 mi East 3.5 mph - N/A   Overcast
7:53 PM 41.0 °F 38.0 °F 37.0 °F 86% 29.87 in 10.0 mi East 4.6 mph - N/A   Overcast
8:53 PM 41.0 °F 38.0 °F 37.9 °F 89% 29.88 in 8.0 mi ENE 4.6 mph - 0.00 in Rain Light Rain
9:53 PM 41.0 °F 39.0 °F 37.9 °F 89% 29.88 in 5.0 mi East 3.5 mph - 0.00 in   Overcast
10:40 PM 41.0 °F - 37.9 °F 89% 29.86 in 5.0 mi Calm Calm - 0.00 in Rain Light Rain
10:53 PM 41.0 °F 39.0 °F 37.9 °F 89% 29.88 in 4.0 mi South 3.5 mph - 0.00 in   Overcast
11:53 PM 41.0 °F 37.1 °F 37.9 °F 89% 29.88 in 2.5 mi NW 5.8 mph 23.0 mph N/A   Overcast